Presure
111 99 121 122 112 105 160 171 102 89 129 109 121 81 94 112 84 127 182 89 123 80 90 140 162 167 95 83 171 210 208 228 232 218 204 230 204 170 201 203 204 203 208
99 100 103 94 93 114 109 86 83 144 107 80 78 127 220 194 235 201 86 83 76 212 215 223 237 257 245 326 289 259 240 234 223 213 226 234 227 223 217 219 229 216 228
92 94 85 86 189 73 91 87 88 69 74 218 234 220 157 196 229 90 238 86 198 128 199 336 326 311 247 310 316 312 285 301 255 219 309 324 321 241 320 302 332 334 336
85 113 93 75 83 81 73 96 90 72 115 209 187 116 225 225 221 232 243 259 241 219 274 254 252 245 220 212 288 303 303 290 313 283 303 208 309 309 308 306 299 303 325
91 110 139 74 85 126 164 104 219 219 208 165 217 221 244 266 281 312 322 306 270 320 226 221 318 234 189 185 257 249 188 243 304 303 297 302 312 312 288 305 295 282 289
74 104 143 74 183 174 211 214 208 198 197 222 210 263 294 292 264 313 295 265 301 246 312 276 270 195 276 309 286 261 295 285 282 289 296 300 299 294 293 291 289 286 285
168 78 163 112 162 205 222 223 165 200 223 226 252 256 314 309 309 293 217 163 175 271 304 297 305 283 289 285 288 278 256 266 244 246 259 233 261 243 257 255 256 263 264
208 170 199 181 203 211 207 206 198 223 209 241 339 331 305 305 174 168 166 199 240 279 292 282 286 282 285 273 255 260 246 245 232 239 238 226 232 242 235 248 246 247 248
192 193 197 201 200 204 144 193 208 243 243 229 341 315 303 284 250 264 259 270 284 292 279 284 279 279 274 260 256 242 242 220 228 235 234 238 220 233 230 236 234 227 230
176 185 192 194 154 184 208 229 242 240 228 240 277 264 255 289 273 251 269 294 287 286 287 278 274 269 263 255 239 235 212 221 238 213 226 232 229 229 230 225 227 237 229
180 172 144 168 184 209 265 253 229 228 180 215 298 304 277 243 235 247 263 299 292 284 279 273 268 263 258 238 237 223 239 236 210 229 223 218 219 219 216 217 211 214 222
205 193 193 180 196 253 249 240 236 214 225 222 229 248 216 233 220 236 273 291 279 274 277 271 263 255 243 235 226 237 212 223 214 215 215 218 213 228 208 206 211 234 214
190 184 182 179 223 247 240 239 240 230 219 217 229 189 217 231 231 213 284 282 282 246 274 263 241 252 236 246 231 223 228 194 220 214 220 208 199 220 212 225 217 221 212
198 199 191 220 244 239 208 223 225 199 209 192 215 195 245 242 239 241 234 264 275 272 257 259 251 247 243 223 236 215 224 216 217 216 205 218 225 216 218 202 208 214 213
177 207 245 236 231 228 223 217 214 201 187 229 204 201 197 187 218 235 223 232 237 275 273 253 259 240 234 227 220 223 207 219 222 206 196 208 221 212 199 224 221 216 227
221 226 236 227 223 225 223 215 215 201 193 198 181 190 199 195 209 201 195 200 221 233 230 244 259 236 237 223 229 229 227 218 214 217 200 219 216 220 228 207 212 210 201
233 219 217 222 218 211 218 214 220 219 214 199 202 180 172 186 220 200 198 212 197 212 224 217 213 243 236 233 230 213 212 208 220 214 211 211 217 198 202 214 186 225 216
213 222 219 222 212 215 218 217 205 215 189 191 200 219 197 191 175 202 186 196 173 180 197 218 185 224 176 182 234 206 207 213 223 232 220 128 211 221 199 195 211 216 209
216 219 220 219 217 213 209 209 211 188 204 206 189 188 179 191 200 176 173 206 169 179 204 195 193 186 178 169 187 190 191 160 181 183 207 185 192 201 202 200 191 190 202
221 215 216 215 210 191 203 197 199 214 210 187 203 182 201 179 184 201 168 191 171 171 207 178 213 173 181 174 183 187 198 181 191 190 189 195 190 182 206 182 198 199 188
169 187 199 195 203 200 186 186 158 182 226 212 168 168 233 224 228 242 196 159 154 157 159 209 207 216 158 212 171 213 206 191 180 199 191 197 206 204 202 208 186 202 199
218 207 211 206 217 213 213 212 215 225 205 195 151 148 224 194 191 231 162 153 233 215 165 171 165 213 210 174 194 160 155 217 200 180 184 193 203 161 192 203 179 180 205
189 264 203 253 215 257 231 215 236 211 203 147 208 192 189 197 205 183 188 201 202 154 193 215 198 223 222 169 203 208 166 226 171 212 220 220 198 218 211 213 170 205 180
201 220 193 210 218 185 222 232 237 260 231 263 245 220 211 211 260 190 144 214 244 185 174 150 210 232 182 188 206 196 206 219 157 163 185 198 207 169 175 224 201 176 221
168 214 176 185 191 233 212 216 233 227 244 202 231 245 258 259 220 267 193 249 184 217 178 172 179 150 173 217 224 175 220 176 180 201 177 169 168 218 204 213 210 225 208
236 232 180 240 209 223 196 214 196 250 224 240 172 159 186 180 263 240 251 181 179 191 191 196 153 190 234 198 145 231 149 225 226 228 226 190 176 161 231 227 216 219 215
Wind_Speed
34 37 36 39 36 33 56 61 29 19 36 35 46 37 40 57 41 68 62 41 68 42 51 76 54 50 43 43 69 73 76 69 69 77 77 75 76 77 82 83 84 83 83
39 43 44 38 36 36 38 22 23 49 42 34 38 50 84 74 84 67 39 41 28 64 69 59 63 77 73 54 56 70 72 69 68 75 73 74 77 79 83 82 84 86 82
35 39 26 22 74 25 36 24 38 25 35 88 88 83 60 70 86 50 83 51 62 44 45 51 48 39 54 43 47 52 59 55 70 72 54 51 56 78 55 61 51 51 52
32 54 35 21 22 28 31 42 46 33 54 82 73 52 87 83 74 81 84 72 55 52 53 54 52 50 52 54 42 39 41 42 37 43 39 57 38 38 40 42 43 41 33
39 40 54 30 37 57 66 46 87 87 81 69 85 85 79 74 69 58 53 52 53 35 45 44 25 45 54 56 40 42 57 42 22 22 24 25 24 24 28 23 23 26 28
31 47 58 35 72 75 85 87 82 77 76 87 77 77 64 65 65 48 48 51 36 38 18 28 29 50 30 17 20 31 13 11 13 6 4 3 7 9 10 12 16 18 21
68 43 65 58 64 85 83 84 65 80 86 77 73 67 46 46 43 43 49 53 53 35 16 17 12 18 13 13 10 8 15 7 16 16 6 22 3 20 6 9 13 14 15
72 70 76 69 84 83 82 83 83 85 76 71 37 32 39 39 54 54 56 52 41 27 16 15 13 12 12 11 12 11 12 12 18 16 16 19 18 12 17 9 11 14 18
75 77 79 82 82 81 64 82 85 71 67 68 29 32 34 36 43 39 37 33 29 18 19 14 14 14 16 15 18 15 15 19 16 14 15 11 19 17 17 14 16 20 21
82 84 84 82 66 79 82 71 66 68 63 58 41 39 39 35 33 37 33 28 26 23 18 16 16 18 20 23 16 17 23 18 15 19 16 16 14 16 16 18 19 18 21
84 77 59 72 81 82 56 57 64 66 58 57 40 36 31 32 37 34 34 28 23 21 18 17 20 22 28 19 19 18 18 17 19 15 16 18 19 18 19 19 20 21 22
80 85 84 80 82 54 55 59 55 64 60 56 45 35 41 36 37 33 31 26 25 20 18 20 22 24 24 20 19 20 21 19 19 19 19 18 18 13 21 23 21 13 23
83 86 82 75 66 53 54 56 54 53 54 45 41 45 42 38 35 39 30 30 26 22 19 22 22 27 23 27 22 20 22 27 23 21 19 21 23 19 21 13 17 16 21
87 84 84 69 52 51 57 58 57 46 50 50 43 45 32 30 29 28 27 30 27 22 24 24 27 28 28 24 26 23 24 24 24 22 21 22 20 20 16 23 20 17 16
78 83 56 60 58 57 58 56 55 48 49 47 47 46 42 39 34 28 30 27 23 27 23 25 31 28 26 27 25 25 23 27 27 24 25 23 23 22 27 15 15 15 13
76 68 60 63 65 59 58 58 57 52 48 45 48 45 44 44 41 42 42 38 27 24 19 26 30 28 32 28 30 30 30 27 28 28 26 27 26 23 20 21 17 19 23
66 75 74 69 68 65 62 60 59 57 54 50 48 48 44 47 43 41 40 35 38 31 25 24 25 32 32 33 35 26 30 30 32 31 27 24 26 28 26 24 36 26 21
84 74 76 73 72 72 68 65 62 61 51 50 53 60 46 46 46 41 42 42 39 41 40 31 41 30 37 40 38 27 29 31 35 38 33 43 27 29 33 34 27 27 24
84 82 79 78 76 77 74 71 71 58 62 62 51 53 49 47 49 49 47 50 45 45 46 47 40 46 42 40 47 44 42 39 44 43 36 44 40 35 34 36 40 39 33
86 87 85 83 82 73 78 70 70 76 71 57 66 60 59 52 52 60 54 58 51 52 53 50 51 45 50 48 46 52 50 52 47 47 47 48 48 52 40 48 42 41 43
74 82 87 82 85 82 72 71 66 64 85 77 59 60 79 75 78 68 65 59 58 56 55 58 53 55 47 50 55 55 57 57 53 51 52 52 51 49 50 47 48 45 45
103 100 100 95 103 100 95 92 93 94 82 73 69 65 84 61 61 80 65 62 72 72 65 65 63 63 60 62 53 50 42 62 62 53 60 55 55 43 56 52 56 55 52
91 97 89 103 88 102 104 92 102 95 92 70 86 67 67 69 79 75 73 77 67 60 65 72 69 77 74 62 65 66 52 70 53 67 69 67 59 67 64 64 53 61 51
108 107 94 105 94 73 96 96 105 100 97 98 101 98 88 91 87 82 64 83 80 64 64 56 78 83 75 68 66 68 75 77 53 54 64 73 68 53 62 73 68 56 70
79 116 71 80 92 110 80 88 102 101 102 74 100 96 93 91 91 87 81 89 77 87 72 78 72 54 73 76 81 68 85 72 74 79 61 70 55 77 69 75 65 81 66
118 115 81 115 112 107 84 110 94 108 94 102 78 69 76 79 95 88 87 77 76 66 73 70 57 72 88 69 63 90 64 88 93 93 92 80 77 52 94 89 76 75 73
Wind_Direction
294 299 287 290 291 285 295 296 293 287 294 280 273 269 296 280 277 292 296 275 299 284 283 292 291 286 298 302 282 273 270 270 269 269 270 266 269 276 274 273 272 271 269
295 295 295 294 293 293 290 271 282 292 297 276 275 299 294 297 301 292 279 280 290 297 294 284 282 279 276 266 270 268 273 267 266 269 267 268 269 268 268 267 269 267 266
292 292 291 290 290 274 286 282 278 287 285 298 300 305 297 296 303 287 301 272 283 298 293 273 278 272 276 269 269 269 269 270 265 270 273 275 274 271 276 273 275 275 274
285 292 289 275 282 270 271 289 288 291 285 306 304 296 305 304 305 301 299 300 291 289 288 285 283 278 274 275 274 272 273 275 274 275 274 276 275 275 275 275 275 276 277
288 286 294 276 289 301 302 288 296 299 305 304 307 306 303 300 302 305 308 309 298 304 289 284 266 275 278 279 275 273 277 274 272 275 276 275 279 283 280 286 290 284 285
281 290 285 275 293 291 292 295 302 306 308 307 308 300 300 298 300 306 308 302 306 295 287 279 278 281 274 256 265 272 259 269 268 257 280 20 38 30 7 345 332 325 311
294 283 296 289 299 291 296 301 296 309 309 309 305 304 300 299 304 306 297 290 289 299 287 276 261 269 256 248 234 239 266 209 273 271 251 283 339 282 335 322 318 342 332
289 289 292 293 292 297 302 304 307 309 313 310 301 302 298 300 296 294 292 296 301 300 281 274 258 243 222 220 237 195 231 240 266 264 276 282 290 289 288 320 325 331 328
289 290 290 290 297 301 293 307 308 308 311 313 308 305 303 304 303 306 303 300 300 286 282 261 244 216 197 193 187 222 221 261 251 262 272 259 284 290 296 311 316 307 318
289 290 290 297 290 302 305 307 305 307 311 314 327 321 315 312 314 305 302 298 292 286 262 251 225 205 190 187 224 232 267 256 231 272 265 265 273 287 299 301 311 334 325
290 299 284 295 304 304 306 304 304 307 300 315 332 324 326 317 314 307 311 290 289 278 261 236 217 203 185 227 226 250 225 235 272 253 261 276 287 289 290 293 296 305 323
286 290 295 303 302 301 300 301 301 308 313 315 320 327 318 318 317 310 301 292 296 279 254 233 220 207 219 235 245 228 265 247 268 269 274 273 281 275 290 294 297 354 305
289 294 299 296 299 296 298 301 304 310 309 314 319 308 318 317 307 312 315 308 295 287 251 237 263 216 238 217 242 245 238 278 250 265 263 273 283 273 283 282 291 300 301
291 294 298 298 295 295 295 298 303 302 305 305 312 313 325 317 314 322 308 325 303 289 279 252 241 231 233 256 233 261 244 256 254 260 271 266 262 271 279 281 284 292 296
295 296 294 294 293 292 297 300 302 296 295 309 302 307 307 307 308 317 305 313 316 295 270 271 236 256 248 258 265 258 268 264 253 272 270 272 265 264 276 270 272 291 314
294 293 293 294 296 295 295 296 298 295 292 293 296 299 304 305 303 302 303 303 301 311 300 280 252 266 251 265 255 254 253 263 267 262 269 265 267 261 262 266 267 273 275
294 295 295 293 294 294 294 293 293 293 291 293 293 291 289 298 298 298 296 290 296 293 292 277 277 268 264 261 258 267 267 267 267 266 264 266 266 267 267 272 274 281 287
290 287 288 288 290 291 291 289 293 291 291 291 295 296 292 287 290 290 291 291 290 295 290 283 292 283 291 292 261 269 268 270 270 262 267 273 266 267 269 269 279 282 283
287 287 286 287 288 290 293 293 292 288 290 291 285 284 283 287 289 284 285 287 284 287 286 285 279 283 281 284 283 278 272 283 282 278 263 277 271 268 271 271 272 270 272
283 287 287 287 289 292 292 292 293 290 291 283 289 285 283 278 281 287 275 283 280 283 285 282 281 275 274 279 274 277 268 280 272 271 271 269 274 276 271 277 276 268 272
285 289 291 290 292 292 286 286 278 280 285 289 271 274 283 282 285 278 279 278 281 284 283 283 279 276 277 278 277 268 269 272 275 271 270 270 270 268 270 273 277 273 267
287 290 289 289 289 290 291 290 285 286 288 283 278 279 286 281 281 280 273 278 274 273 278 279 280 276 275 273 270 282 280 272 273 277 272 272 271 281 270 272 274 274 275
287 284 285 282 280 279 283 284 280 288 283 280 287 279 276 278 281 281 270 280 277 280 271 278 267 273 274 276 274 274 279 268 273 272 271 269 275 273 275 278 279 278 282
285 282 286 285 283 284 282 281 281 281 283 280 279 280 284 284 277 277 274 279 262 259 274 277 271 265 273 277 275 269 269 272 280 270 265 274 272 274 281 274 279 271 279
287 278 279 287 294 281 283 285 279 279 283 283 278 278 280 279 278 278 267 263 263 274 278 278 275 276 269 273 265 280 272 274 269 273 276 283 274 277 267 277 273 279 271
281 281 286 281 280 278 274 280 286 283 283 285 260 277 269 277 281 274 272 278 258 259 270 272 277 276 265 266 265 268 266 269 269 267 269 267 279 272 273 278 276 279 274